Regional Weather Roundup
Issued by NWS

Home | Current Version | Previous Version | Graphics & Text | Print | Product List | Glossary On
Versions: 1 2 3 4 5 6 7 8 9 10 11 12 13 14 15 16 17 18 19 20 21 22 23 24 25 26 27 28 29 30 31 32 33 34 35 36 37 38 39 40 41 42 43 44 45 46 47 48 49 50
000
ASUS43 KFSD 011702
RWRSD

WEATHER ROUNDUP FOR SOUTH DAKOTA
NATIONAL WEATHER SERVICE SIOUX FALLS SD
1100 AM CST SUN MAR 01 2015

NOTE: "FAIR" INDICATES FEW OR NO CLOUDS BELOW 12,000 FEET WITH NO
SIGNIFICANT WEATHER AND/OR OBSTRUCTIONS TO VISIBILITY.


SDZ001>005-009-010-012>017-011800-
NORTHWEST AND NORTH CENTRAL SOUTH DAKOTA

CITY           SKY/WX    TMP DP  RH WIND       PRES   REMARKS
BUFFALO          N/A     23  12  62 NW25G35   30.16R WCI   7
MOBRIDGE       PTSUNNY   24  14  65 NW16      30.24R WCI  11
$$

SDZ012>016-024>037-041>051-057-063-072>074-011800-
SOUTHWEST AND SOUTH CENTRAL SOUTH DAKOTA

CITY           SKY/WX    TMP DP  RH WIND       PRES   REMARKS
RAPID CTY ARPT PTSUNNY   23   9  55 N9G18     30.27R WCI  13
PIERRE         SUNNY     29  10  45 W21       30.29S WCI  16
CUSTER         MOSUNNY   19   6  57 NW14G22   30.12R WCI   6
ELLSWORTH AFB  SUNNY     23  11  59 N14       30.26R WCI  11
PHILIP         MOSUNNY   30   7  37 W18G25    30.31R WCI  18
PINE RIDGE     MOSUNNY   27  12  53 W8        30.28S WCI  19
WINNER         FAIR      32   6  33 NW16G24   30.31S WCI  21
$$

SDZ004>011-016>023-039-040-011800-
NORTHEAST SOUTH DAKOTA

CITY           SKY/WX    TMP DP  RH WIND       PRES   REMARKS
ABERDEEN       SUNNY     23  12  62 W15       30.27R WCI  10
WATERTOWN      SUNNY     19   9  65 W15       30.23S WCI   5
SISSETON         N/A     21   9  59 W14       30.23S WCI   8
$$

SDZ017-020-022-023-036>040-048>070-011800-
SOUTHEAST SOUTH DAKOTA

CITY           SKY/WX    TMP DP  RH WIND       PRES   REMARKS
SIOUX FALLS    PTSUNNY   23  12  62 W10       30.32S WCI  12
HURON          SUNNY     27  14  58 W14       30.31R WCI  16
MITCHELL       SUNNY     30  11  45 W17G24    30.33S WCI  18
YANKTON        MOSUNNY   27  14  59 W14       30.37F WCI  15
$$

ABBREVIATIONS USED IN REMARKS
   TC - TEMPERATURE IN CELSIUS
  WCI - WIND CHILL INDEX
   HX - HEAT INDEX
  VSB - VISIBILITY




USA.gov is the U.S. government's official web portal to all federal, state and local government web resources and services.